Location: Montreal
(45.5087°N, 73.5540°W)
Time: 23:29:44
(UTC-04:00)

ISS - Pass Details

Date: 14 May 2026
Orbit: 415 x 423 km, 51.6° (Epoch: 10 June)

Event Time Altitude Azimuth Distance (km) Brightness Sun altitude
Rises 20:57:17 0° 266° (W) 2,351 0.9 -6.8°
Reaches altitude 10° 20:59:29 10° 275° (W) 1,489 0.1 -7.1°
Maximum altitude 21:02:37 37° 344° (NNW) 667 -2.2 -7.5°
Drops below altitude 10° 21:05:46 10° 54° (NE) 1,493 -1.1 -8.0°
Enters shadow 21:09:35 -5° 66° (ENE) 3,016 0.3 -8.5°
